TimeEDT,TemperatureF,Dew PointF,Humidity,Sea Level PressureIn,VisibilityMPH,Wind Direction,Wind SpeedMPH,Gust SpeedMPH,PrecipitationIn,Events,Conditions,WindDirDegrees,DateUTC
12:53 AM,37.0,34.0,89,29.95,10.0,Calm,Calm,-,N/A,,Clear,0,2012-10-17 04:53:00
1:53 AM,35.1,33.1,92,29.94,10.0,Calm,Calm,-,N/A,,Clear,0,2012-10-17 05:53:00
2:53 AM,34.0,32.0,92,29.94,10.0,Calm,Calm,-,N/A,,Clear,0,2012-10-17 06:53:00
3:53 AM,33.1,30.9,92,29.94,10.0,Calm,Calm,-,N/A,,Clear,0,2012-10-17 07:53:00
4:53 AM,34.0,32.0,92,29.95,9.0,Calm,Calm,-,N/A,,Clear,0,2012-10-17 08:53:00
5:53 AM,34.0,30.9,89,29.96,10.0,Calm,Calm,-,N/A,,Clear,0,2012-10-17 09:53:00
6:53 AM,34.0,30.9,89,29.98,10.0,Calm,Calm,-,N/A,,Clear,0,2012-10-17 10:53:00
7:53 AM,35.1,33.1,92,29.99,9.0,Calm,Calm,-,N/A,,Clear,0,2012-10-17 11:53:00
8:53 AM,43.0,37.9,82,30.02,10.0,Calm,Calm,-,N/A,,Clear,0,2012-10-17 12:53:00
9:53 AM,46.9,37.0,68,30.03,10.0,Calm,Calm,-,N/A,,Clear,0,2012-10-17 13:53:00
10:53 AM,50.0,37.9,63,30.02,10.0,Calm,Calm,-,N/A,,Clear,0,2012-10-17 14:53:00
11:53 AM,54.0,39.0,57,30.00,10.0,Variable,3.5,-,N/A,,Clear,0,2012-10-17 15:53:00
12:53 PM,55.9,39.0,53,29.98,10.0,SW,3.5,-,N/A,,Clear,220,2012-10-17 16:53:00
1:53 PM,57.0,37.9,49,29.96,10.0,West,5.8,-,N/A,,Clear,260,2012-10-17 17:53:00
2:53 PM,59.0,37.0,44,29.95,10.0,NW,4.6,-,N/A,,Clear,310,2012-10-17 18:53:00
3:53 PM,59.0,36.0,42,29.95,10.0,WSW,3.5,-,N/A,,Clear,250,2012-10-17 19:53:00
4:53 PM,59.0,39.9,49,29.95,10.0,SSW,3.5,-,N/A,,Clear,210,2012-10-17 20:53:00
5:53 PM,55.9,41.0,57,29.96,10.0,South,3.5,-,N/A,,Clear,170,2012-10-17 21:53:00
6:53 PM,53.1,42.1,66,29.98,10.0,Calm,Calm,-,N/A,,Clear,0,2012-10-17 22:53:00
7:53 PM,48.0,42.1,80,30.00,10.0,Calm,Calm,-,N/A,,Clear,0,2012-10-17 23:53:00
8:53 PM,46.0,42.1,86,30.01,10.0,Calm,Calm,-,N/A,,Clear,0,2012-10-18 00:53:00
9:53 PM,44.1,41.0,89,30.02,10.0,Calm,Calm,-,N/A,,Clear,0,2012-10-18 01:53:00
10:53 PM,42.1,39.9,92,30.02,10.0,Calm,Calm,-,N/A,,Clear,0,2012-10-18 02:53:00
11:53 PM,41.0,37.9,89,30.02,9.0,Calm,Calm,-,N/A,,Clear,0,2012-10-18 03:53:00